Location: C�mpuri de-Sus
(45.9500°N, 22.5500°E)
Time: 02:11:32
(UTC+00:00)

Cosmos 839 Rocket - Pass Details

Date: 03 June 2022
Orbit: 968 x 2085 km, 65.9° (Epoch: 06 July)

Event Time Altitude Azimuth Distance (km) Brightness Sun altitude
Rises 22:19:45 0° 321° (NW) 3,722 7.9 -21.6°
Reaches altitude 10° 22:22:15 10° 315° (NW) 2,827 7.0 -21.6°
Maximum altitude 22:28:28 48° 244° (WSW) 1,466 4.7 -21.7°
Enters shadow 22:30:59 35° 197° (SSW) 1,835 4.9 -21.6°
